Location: Grand Lay
(47.3253°N, 0.9468°E)
Time: 09:22:58
(UTC+00:00)

CENTAUR R/B - Pass Details

Date: 18 January 2026
Orbit: 629 x 1552 km, 63.4° (Epoch: 19 February)

Event Time Altitude Azimuth Distance (km) Brightness Sun altitude
Rises 05:19:29 0° 185° (S) 3,149 5.2 -22.8°
Reaches altitude 10° 05:21:51 10° 175° (S) 2,329 4.6 -22.4°
Maximum altitude 05:26:35 33° 113° (ESE) 1,461 4.0 -21.6°
Drops below altitude 10° 05:32:21 10° 52° (NE) 2,860 5.5 -20.6°
Sets 05:35:33 0° 44° (NE) 3,984 6.2 -20.1°
